Location: Arrodets-la-Barthe
(43.0306°N, 0.2829°E)
Time: 00:37:35
(UTC+00:00)

Cosmos 2344 - Pass Details

Date: 31 May 2022
Orbit: 1228 x 3015 km, 63.3° (Epoch: 04 July)

Event Time Altitude Azimuth Distance (km) Brightness Sun altitude
Rises 02:35:04 0° 322° (NW) 4,369 6.6 -15.5°
Reaches altitude 10° 02:37:55 10° 330° (NNW) 3,522 6.2 -15.2°
Maximum altitude 02:46:01 40° 40° (NE) 2,333 5.6 -14.3°
Drops below altitude 10° 02:56:46 10° 107° (ESE) 4,675 6.9 -13.0°
Sets 03:01:10 0° 114° (ESE) 5,952 7.3 -12.4°
